When you browse on this site, cookies collect data to enhance your experience and personalize the content and advertising you see.
Visit our Privacy Policy to learn more. By continuing to use the site, you agree to this use of cookies and data.
  • In Hungary
  • List of Countries
  • For 7 days
  • Water Temperature
  • Satellite Maps
  • Weather Map
  • News
  • Weather Widgets
  • user-avatar
    Login

    Hourly Weather Lozenec

    Today, 16 January, Wednesday

    Time Temperature Precipitation Wind Pressure Humidity
    00:00 -4°C° 0 mm 6 mps 757 mmHg 72%
    01:00 -4°C° 0 mm 6 mps 757 mmHg 71%
    02:00 -3°C° 0 mm 4 mps 757 mmHg 69%
    03:00 -3°C° 0 mm 4 mps 757 mmHg 67%
    04:00 -4°C° 0 mm 5 mps 758 mmHg 64%
    05:00 -4°C° 0 mm 5 mps 758 mmHg 62%
    06:00 -4°C° 0 mm 5 mps 758 mmHg 63%
    07:00 -2°C° 0 mm 5 mps 758 mmHg 65%
    08:00 -2°C° 0 mm 5 mps 758 mmHg 66%
    09:00 0°C° 0 mm 5 mps 758 mmHg 61%
    10:00 +1°C° 0 mm 5 mps 757 mmHg 56%
    11:00 +3°C° 0 mm 5 mps 757 mmHg 51%
    12:00 +5°C° 0 mm 5 mps 757 mmHg 49%
    13:00 +5°C° 0 mm 6 mps 757 mmHg 48%
    14:00 +5°C° 0 mm 6 mps 757 mmHg 47%
    15:00 +5°C° 0 mm 6 mps 757 mmHg 52%
    16:00 +5°C° 0 mm 5 mps 757 mmHg 56%
    17:00 +4°C° 0 mm 4 mps 757 mmHg 61%
    18:00 +3°C° 0 mm 4 mps 757 mmHg 64%
    19:00 +3°C° 0 mm 4 mps 758 mmHg 67%
    20:00 +1°C° 0 mm 4 mps 758 mmHg 69%
    21:00 +1°C° 0 mm 4 mps 759 mmHg 70%
    22:00 +1°C° 0 mm 4 mps 759 mmHg 71%
    23:00 +1°C° 0 mm 4 mps 760 mmHg 72%

    Tomorrow, 17 January, Thursday

    Time Temperature Precipitation Wind Pressure Humidity
    00:00 +1°C° 0 mm 4 mps 760 mmHg 72%
    01:00 +2°C° 0 mm 3 mps 761 mmHg 72%
    02:00 +2°C° 0 mm 3 mps 761 mmHg 72%
    03:00 +3°C° 0 mm 2 mps 761 mmHg 72%
    04:00 +3°C° 0 mm 2 mps 761 mmHg 73%
    05:00 +3°C° 0 mm 2 mps 761 mmHg 73%
    06:00 +3°C° 0 mm 2 mps 761 mmHg 73%
    07:00 +3°C° 0 mm 2 mps 762 mmHg 73%
    08:00 +3°C° 0 mm 2 mps 762 mmHg 73%
    09:00 +5°C° 0 mm 2 mps 762 mmHg 66%
    10:00 +7°C° 0 mm 2 mps 762 mmHg 60%
    11:00 +8°C° 0 mm 2 mps 762 mmHg 54%
    12:00 +9°C° 0 mm 2 mps 762 mmHg 53%
    13:00 +10°C° 0 mm 2 mps 761 mmHg 53%
    14:00 +12°C° 0 mm 2 mps 761 mmHg 53%
    15:00 +10°C° 0 mm 2 mps 761 mmHg 59%
    16:00 +8°C° 0 mm 3 mps 761 mmHg 66%
    17:00 +7°C° 0 mm 3 mps 761 mmHg 73%
    18:00 +7°C° 0 mm 3 mps 761 mmHg 77%
    19:00 +5°C° 0 mm 3 mps 761 mmHg 80%
    20:00 +5°C° 0 mm 3 mps 761 mmHg 84%
    21:00 +5°C° 0 mm 3 mps 761 mmHg 83%
    22:00 +5°C° 0 mm 3 mps 761 mmHg 82%
    23:00 +5°C° 0 mm 3 mps 761 mmHg 81%

    Day after tomorrow, 18 January, Friday

    Time Temperature Precipitation Wind Pressure Humidity
    00:00 +5°C° 0 mm 3 mps 761 mmHg 81%
    01:00 +5°C° 0 mm 3 mps 760 mmHg 80%
    02:00 +5°C° 0 mm 3 mps 760 mmHg 80%
    03:00 +5°C° 0 mm 3 mps 760 mmHg 82%
    04:00 +5°C° 0 mm 3 mps 760 mmHg 85%
    05:00 +5°C° 0 mm 3 mps 760 mmHg 87%
    06:00 +5°C° 0 mm 3 mps 760 mmHg 87%
    07:00 +5°C° 0 mm 3 mps 760 mmHg 88%
    08:00 +5°C° 0 mm 3 mps 760 mmHg 88%
    09:00 +7°C° 0 mm 3 mps 760 mmHg 82%
    10:00 +8°C° 0 mm 4 mps 760 mmHg 76%
    11:00 +11°C° 0 mm 4 mps 760 mmHg 70%
    12:00 +11°C° 0 mm 4 mps 760 mmHg 68%
    13:00 +12°C° 0 mm 4 mps 760 mmHg 66%
    14:00 +12°C° 0 mm 5 mps 759 mmHg 64%
    15:00 +11°C° 0 mm 4 mps 759 mmHg 69%
    16:00 +10°C° 0 mm 3 mps 760 mmHg 74%
    17:00 +10°C° 0 mm 3 mps 760 mmHg 79%
    18:00 +9°C° 0 mm 3 mps 760 mmHg 82%
    19:00 +8°C° 0 mm 2 mps 761 mmHg 85%
    20:00 +8°C° 0 mm 2 mps 761 mmHg 88%
    21:00 +7°C° 0 mm 2 mps 762 mmHg 89%
    22:00 +7°C° 0 mm 2 mps 762 mmHg 90%
    23:00 +7°C° 0 mm 2 mps 763 mmHg 91%

    19 January, Saturday

    Time Temperature Precipitation Wind Pressure Humidity
    00:00 +6°C° 0 mm 2 mps 763 mmHg 89%
    01:00 +5°C° 0 mm 3 mps 763 mmHg 86%
    02:00 +5°C° 0 mm 3 mps 763 mmHg 84%
    03:00 +4°C° 0 mm 3 mps 763 mmHg 84%
    04:00 +3°C° 0 mm 3 mps 763 mmHg 84%
    05:00 +3°C° 0 mm 4 mps 763 mmHg 85%
    06:00 +3°C° 0 mm 3 mps 764 mmHg 87%
    07:00 +3°C° 0 mm 3 mps 764 mmHg 89%
    08:00 +4°C° 0 mm 2 mps 764 mmHg 91%
    09:00 +5°C° 0 mm 2 mps 764 mmHg 87%
    10:00 +6°C° 0 mm 2 mps 765 mmHg 83%
    11:00 +7°C° 0 mm 2 mps 765 mmHg 79%
    12:00 +7°C° 0 mm 2 mps 764 mmHg 78%
    13:00 +7°C° 0 mm 2 mps 764 mmHg 77%
    14:00 +8°C° 0 mm 2 mps 763 mmHg 76%
    15:00 +7°C° 0 mm 2 mps 763 mmHg 78%
    16:00 +7°C° 0 mm 2 mps 763 mmHg 81%
    17:00 +6°C° 0 mm 2 mps 763 mmHg 83%
    18:00 +6°C° 0 mm 2 mps 763 mmHg 84%
    19:00 +6°C° 0 mm 2 mps 763 mmHg 86%
    20:00 +6°C° 0 mm 2 mps 763 mmHg 87%
    21:00 +6°C° 0 mm 2 mps 763 mmHg 88%
    22:00 +6°C° 0 mm 2 mps 763 mmHg 89%
    23:00 +6°C° 0 mm 2 mps 763 mmHg 90%

    20 January, Sunday

    Time Temperature Precipitation Wind Pressure Humidity
    00:00 +6°C° 0 mm 2 mps 762 mmHg 91%
    01:00 +6°C° 0 mm 2 mps 762 mmHg 91%
    02:00 +6°C° 0 mm 2 mps 762 mmHg 91%
    03:00 +6°C° 0 mm 2 mps 761 mmHg 91%
    04:00 +6°C° 0 mm 2 mps 761 mmHg 91%
    05:00 +6°C° 0 mm 2 mps 761 mmHg 92%
    06:00 +7°C° 0 mm 2 mps 761 mmHg 92%
    07:00 +7°C° 0 mm 2 mps 761 mmHg 92%
    08:00 +7°C° 0 mm 2 mps 761 mmHg 92%
    09:00 +8°C° 0 mm 3 mps 761 mmHg 86%
    10:00 +10°C° 0 mm 3 mps 760 mmHg 79%
    11:00 +11°C° 0 mm 4 mps 760 mmHg 73%
    12:00 +12°C° 0 mm 4 mps 760 mmHg 72%
    13:00 +12°C° 0 mm 5 mps 759 mmHg 71%
    14:00 +12°C° 0 mm 5 mps 759 mmHg 69%
    15:00 +10°C° 0 mm 5 mps 759 mmHg 73%
    16:00 +10°C° 0 mm 5 mps 758 mmHg 77%
    17:00 +10°C° 0 mm 4 mps 758 mmHg 81%
    18:00 +10°C° 0 mm 4 mps 758 mmHg 82%
    19:00 +8°C° 0 mm 4 mps 758 mmHg 83%
    20:00 +8°C° 0 mm 4 mps 758 mmHg 85%
    21:00 +8°C° 0 mm 4 mps 758 mmHg 85%
    22:00 +8°C° 0 mm 4 mps 758 mmHg 84%
    23:00 +8°C° 0 mm 4 mps 758 mmHg 84%

    21 January, Monday

    Time Temperature Precipitation Wind Pressure Humidity
    00:00 +8°C° 0 mm 4 mps 758 mmHg 84%
    01:00 +8°C° 0 mm 4 mps 758 mmHg 85%
    02:00 +8°C° 0 mm 4 mps 758 mmHg 85%
    03:00 +9°C° 0 mm 3 mps 758 mmHg 86%
    04:00 +9°C° 0 mm 3 mps 758 mmHg 87%
    05:00 +9°C° 0 mm 3 mps 758 mmHg 88%
    06:00 +9°C° 0 mm 3 mps 758 mmHg 88%
    07:00 +8°C° 0 mm 2 mps 758 mmHg 89%
    08:00 +8°C° 0 mm 2 mps 759 mmHg 90%
    09:00 +9°C° 0 mm 2 mps 759 mmHg 85%
    10:00 +10°C° 0 mm 2 mps 759 mmHg 81%
    11:00 +12°C° 0 mm 2 mps 760 mmHg 76%
    12:00 +12°C° 0 mm 2 mps 760 mmHg 75%
    13:00 +12°C° 0 mm 2 mps 759 mmHg 73%
    14:00 +11°C° 0 mm 3 mps 759 mmHg 71%
    15:00 +10°C° 0 mm 3 mps 760 mmHg 74%
    16:00 +9°C° 0 mm 3 mps 760 mmHg 77%
    17:00 +9°C° 0 mm 3 mps 760 mmHg 80%
    18:00 +8°C° 0 mm 3 mps 761 mmHg 82%
    19:00 +8°C° 0 mm 3 mps 761 mmHg 84%
    20:00 +7°C° 0 mm 3 mps 761 mmHg 86%
    21:00 +7°C° 0 mm 3 mps 762 mmHg 87%
    22:00 +5°C° 0 mm 4 mps 762 mmHg 87%
    23:00 +5°C° 0 mm 5 mps 762 mmHg 88%
    Show more